Regional Weather Roundup
Issued by NWS Charleston, SC

Current Version | Previous Version | Graphics & Text | Print | Product List | Glossary On
Versions: 1 2 3 4 5 6 7 8 9 10 11 12 13 14 15 16 17 18 19 20 21 22 23 24 25 26 27 28 29 30 31 32 33 34 35 36 37 38 39 40 41 42 43 44 45 46 47 48 49 50
000 ASUS42 KCHS 010312 RWRCHS REGIONAL WEATHER ROUNDUP NATIONAL WEATHER SERVICE CHARLESTON SC 1100 PM EDT TUE JUN 30 2015 NOTE: "FAIR" INDICATES FEW OR NO CLOUDS BELOW 12,000 FEET WITH NO SIGNIFICANT WEATHER AND/OR OBSTRUCTIONS TO VISIBILITY. NOT ALL STATIONS ARE QUALITY CONTROLLED BY THE NATIONAL WEATHER SERVICE. USE DATA WITH CAUTION...ESPECIALLY DEWPOINT OBSERVATIONS. SCZ027-030-031-034>040-042>050-010400- ...SOUTHEAST SOUTH CAROLINA... CITY SKY/WX TMP DP RH WIND PRES REMARKS N CHARLESTON PTCLDY 73 69 87 SW8 30.01R WATERFRONT PAR N/A 75 70 84 VRB3 29.99R MOUNT PLEASANT LGT RAIN 73 72 94 S5 30.01R JOHNS ISLAND FAIR 73 70 88 SW5 30.01S PINOPOLIS NOT AVBL MONCKS CORNER FAIR 73 70 88 SW3 30.01R SUMMERVILLE FAIR 70 70 100 CALM 30.02R BEAUFORT MCAS MOCLDY 73 68 84 S3 30.01R BEAUFORT ARPT FAIR 77 68 73 CALM 30.01S HILTON HEAD IS CLEAR 73 70 88 S3 30.03S WALTERBORO PTCLDY 70 68 94 S3 30.02R ALLENDALE FAIR 72 70 94 CALM 30.00S ...SOUTHERN MIDLANDS AND PEE DEE... CITY SKY/WX TMP DP RH WIND PRES REMARKS GEORGETOWN NOT AVBL KINGSTREE NOT AVBL ORANGEBURG MOCLDY 71 69 93 S6 30.00R BARNWELL FAIR 73 72 94 SW5 30.01S AIKEN NOT AVBL MANNING HVY RAIN 70 70 100 SW6 30.00R COLUMBIA MOCLDY 73 69 87 S6 29.98R SUMTER PTCLDY 70 68 93 S8 29.96S FLORENCE MOCLDY 72 70 93 SW7 29.97R MYRTLE BEACH PTCLDY 75 64 69 S7 30.00R N MYRTLE BEACH CLOUDY 75 67 76 SW5 29.98R $$ GAZ063-065-086>088-099>101-113>116-118-119-134>141-150-010400- ...SOUTHEAST GEORGIA... CITY SKY/WX TMP DP RH WIND PRES REMARKS SAVANNAH ARPT MOCLDY 73 68 84 S5 30.02S HUNTER AAF PTCLDY 75 71 89 S5 30.00S FORT STEWART PTCLDY 73 70 88 SW6 30.00S STATESBORO MOCLDY 72 32 23 SW3 30.01S SYLVANIA MOCLDY 72 72 99 CALM 30.02S CLAXTON FAIR 70 70 100 CALM 30.02S ...CSRA...CENTRAL AND FAR SOUTHEAST GEORGIA... CITY SKY/WX TMP DP RH WIND PRES REMARKS THOMSON MOCLDY 73 73 99 SW3 30.04R AUGUSTA-BUSH MOCLDY 72 69 90 SW7 29.99R AUGUSTA-DANIEL MOCLDY 72 68 87 SW8 30.00R SWAINSBORO FAIR N/A N/A N/A W3 30.03R VIDALIA HVY RAIN 72 70 94 SW3 30.03R EASTMAN FAIR 73 73 100 SW3 30.05S HAZLEHURST FAIR 73 73 100 SW5 30.03R ALMA CLOUDY 72 70 93 SW3 30.04R WAYCROSS CLOUDY 75 74 98 W5 30.04R JESUP FAIR 73 72 94 CALM 30.03S BAXLEY FAIR 73 72 94 CALM 30.03R BRUNSWICK CLEAR 72 70 94 CALM 30.03F SAINT SIMONS CLEAR 75 71 87 SW3 30.02F $$ SCZ027-028-034-036>038-045-046-048>050-GAZ119-141-010400- ...LAKE AND SUPPLEMENTAL COASTAL OBSERVATIONS... STATION/POSITION TIME TEMP WIND PRES WAVE SWELL AIR SEA DIR/SP/G HT/PER HT/PER/DIR (UTC) (F) (DEG/KT/KT) (MB) (FT/S) (FT/S/D) UPR LAKE MARION NOT AVBL WINYAH BAY 0145 74 180/ 1 1014.0 LAKE MURRAY 0200 75 240/ 6/ 10 1014.2R ACE BASIN NERRS NOT AVBL FORT PULASKI 0200 77 84 200/ 5/ 6 1017.0R SAPELO ISLAND 0200 77 220/ 8 1017.0R $$ ANZ835-935-AMZ111-154-330-350-352-354-370-450-454-472-010400- ...C-MAN AND BUOY OBSERVATIONS... STATION/POSITION TIME TEMP WIND PRES WAVE SWELL AIR SEA DIR/SP/G HT/PER HT/PER/DIR (UTC) (F) (DEG/KT/KT) (MB) (FT/S) (FT/S/D) BUOY 41004 0250 81 83 230/ 16/ 16 1015.8R 4/ 5 2/ 8 BUOY 41008 0250 78 79 230/ 12/ 14 1016.8F 2/ 9 2/120/ 9 FOLLY BEACH CMAN 0200 76 230/ 6/ 8 1015.9R CAPERS NEARSHORE 0208 78 CALM / 6 1015.6R FRIPP NEARSHORE 0200 79 230/ 10/ 12 1016.0R STATION/POSITION TIME TEMP WIND PRES WAVE SWELL AIR SEA DIR/SP/G HT/PER HT/PER/DIR (UTC) (F) (DEG/KT/KT) (MB) (FT/S) (FT/S/D) 5E ST. MARYS GA 0221 78 N/A 2/ 9 FRYING PAN BUOY 0250 83 80 210/ 16/ 19 1015.8R 5/ 5 2/120/ 8 BUOY 41025 0250 83 81 220/ 23/ 25 1014.5R 5/ 5 2/160/ 8 CAPE LOOKOUT NC 0200 81 220/ 15/ 20 1014.8R BUOY 41002 0250 81 80 220/ 16/ 19 1018.5S 5/ 7 3/170/ 9 BUOY 41010 0220 77 84 290/ 12/ 14 1020.6F ST AUGUSTINE FL 0300 76 74 210/ 7/ 8 1019.1S $$

USA.gov is the U.S. government's official web portal to all federal, state and local government web resources and services.